Regional Weather Roundup
Issued by NWS

Home | Current Version | Previous Version | Graphics & Text | Print | Product List | Glossary On
Versions: 1 2 3 4 5 6 7 8 9 10 11 12 13 14 15 16 17 18 19 20 21 22 23 24 25 26 27 28
000
ASUS45 KCYS 191810
RWRWY

WYOMING REGIONAL WEATHER ROUNDUP
NATIONAL WEATHER SERVICE CHEYENNE WY
1200 PM MDT TUE SEP 19 2017

NOTE:  "FAIR" INDICATES FEW OR NO CLOUDS BELOW 12,000 FEET
WITH NO SIGNIFICANT WEATHER AND/OR OBSTRUCTIONS TO VISIBILITY.

WYZ001-191900-
YELLOWSTONE NATIONAL PARK

CITY           SKY/WX    TMP DP  RH WIND       PRES   REMARKS
LK YELLOWSTONE   N/A     34  29  82 VRB7      29.82R WCI  28
6HR MIN TEMP:  30; 6HR MAX TEMP:  34; 6HR PCP:  0.16;

W YELLOWSTONE  NOT AVBL

$$
WYZ002>013-054>058-071-098>099-191900-
NORTHERN WYOMING

CITY           SKY/WX    TMP DP  RH WIND       PRES   REMARKS
JACKSON        FLURRIES  40  31  70 SW9       29.84R WCI  34
CODY           LGT RAIN  45  38  76 N13G20    29.71R
GREYBULL       FAIR      51  43  74 N12       29.65R
6HR MIN TEMP:  48; 6HR MAX TEMP:  54;

WORLAND        FAIR      51  46  83 N13       29.65F
6HR MIN TEMP:  49; 6HR MAX TEMP:  53; 6HR PCP:  0.01;

SHERIDAN       PTSUNNY   48  41  76 NW15      29.67S
6HR MIN TEMP:  46; 6HR MAX TEMP:  54; 6HR PCP:  0.02;

BUFFALO        LGT RAIN  44  40  85 N15G22    29.68R
6HR MIN TEMP:  44; 6HR MAX TEMP:  54; 6HR PCP:  0.02;

GILLETTE       LGT RAIN  50  46  86 NW12      29.63R
6HR MIN TEMP:  50; 6HR MAX TEMP:  62; 6HR PCP:  0.01;

HULETT         CLOUDY    64  43  45 W17G23    29.61R
NEWCASTLE      FAIR      68  36  30 CALM      29.61S

$$
WYZ014>020-022>026-101>103-191900-
CENTRAL WYOMING

CITY           SKY/WX    TMP DP  RH WIND       PRES   REMARKS
BIG PINEY      FAIR      44  27  51 NW20G25   29.87S
6HR MIN TEMP:  37; 6HR MAX TEMP:  44; 6HR PCP:  0.08;

PINEDALE       MOCLDY    43  30  61 NW13G24   29.87S
DUBOIS         FAIR      39  27  60 NW29G37   29.76S WCI  28
LANDER           N/A    N/A N/A N/A MISG      29.76R
RIVERTON       FAIR      50  33  52 S18       29.73F
6HR MIN TEMP:  45; 6HR MAX TEMP:  51; 6HR PCP: TRACE;

CASPER         LGT RAIN  47  44  90 W21G29    29.75R
6HR MIN TEMP:  47; 6HR MAX TEMP:  59; 6HR PCP:  0.01;

DOUGLAS        CLOUDY    63  41  44 NW25G36   29.68R
6HR MIN TEMP:  53; 6HR MAX TEMP:  66;


$$
WYZ021-027>030-104>119-191900-
SOUTHERN WYOMING

CITY           SKY/WX    TMP DP  RH WIND       PRES   REMARKS
EVANSTON       CLOUDY    37  36  96 W9        29.97R WCI  30
6HR MIN TEMP:  34; 6HR MAX TEMP:  45;

FORT BRIDGER   CLOUDY    36  36 100 W17       30.00R WCI  26
ROCK SPRINGS   LGT RAIN  36  34  92 W18G26    29.93S WCI  26
6HR MIN TEMP:  36; 6HR MAX TEMP:  48; 6HR PCP:  0.19;

DIXON          CLOUDY    52  38  57 NW29G38   29.87R
RAWLINS        LGT RAIN  39  36  89 W21G33    29.85R WCI  29
6HR MIN TEMP:  39; 6HR MAX TEMP:  58; 6HR PCP:  0.02;

SARATOGA       CLOUDY    50  37  62 NW32G46   29.83R
LARAMIE        FAIR      70  21  15 SW22G35   29.76S
6HR MIN TEMP:  51; 6HR MAX TEMP:  70;

CHEYENNE       FAIR      75  14  10 S12G24    29.71F
6HR MIN TEMP:  48; 6HR MAX TEMP:  76;

TORRINGTON     FAIR      75  38  26 W5        29.57F
6HR MIN TEMP:  50; 6HR MAX TEMP:  75;

PINE BLUFFS    FAIR      77  28  16 S8G18     29.67F

$$




USA.gov is the U.S. government's official web portal to all federal, state and local government web resources and services.